Location: �terpigny
(49.8910°N, 2.9249°E)
Time: 03:53:56
(UTC+00:00)

Cosmos 332 Rocket - Pass Details

Date: 06 June 2022
Orbit: 681 x 703 km, 74.0° (Epoch: 05 July)

Event Time Altitude Azimuth Distance (km) Brightness Sun altitude
Exits shadow 01:11:22 - 263° (W) 3,009 6.8 -15.1°
Reaches altitude 10° 01:14:49 10° 290° (WNW) 2,130 6.3 -14.9°
Maximum altitude 01:17:06 13° 318° (NW) 1,923 6.4 -14.8°
Drops below altitude 10° 01:19:23 10° 347° (NNW) 2,139 7.2 -14.6°
Sets 01:22:59 0° 15° (NNE) 3,063 9.0 -14.4°
